RH
21 22 22 23 23 25 25 25 25 24 24 25 28 31 33 34 33 31 30 29 30 31 33 34 32 31 32 34 37 40 44 48 51 51 49 47 46 45 45 44 44 44 44 45 46 48 49 50 50 50 50 50 49 48 47 47 47 47 48 48 47 47 47 46 48 54 56 54 53 54 52 48 46 44 41 39 37 36 37 37 35 36 40 40 41 45 45
23 23 22 22 22 23 23 23 23 23 25 28 31 33 33 32 29 27 27 29 31 33 33 32 31 32 33 36 40 43 46 49 50 50 48 47 46 46 45 45 44 44 45 45 45 46 47 49 51 51 51 51 49 48 48 47 47 48 49 50 50 50 50 48 46 48 50 49 46 44 41 38 37 38 39 37 35 35 36 36 35 36 41 41 40 42 44
22 20 19 20 21 22 23 24 26 28 30 31 32 31 30 27 25 25 28 31 33 34 32 31 31 33 35 38 41 44 47 50 50 49 47 46 46 46 46 46 46 45 45 45 44 44 45 48 50 51 51 51 50 50 49 48 49 50 52 54 54 54 54 51 46 43 44 43 41 39 38 38 38 37 38 38 38 37 36 36 36 36 40 43 41 39 41
18 18 19 21 23 24 26 28 30 32 32 32 29 27 25 23 24 27 31 33 33 32 31 31 32 34 36 39 42 45 48 49 49 48 48 47 46 47 47 47 48 47 47 45 44 44 45 47 49 50 50 51 51 51 51 51 51 53 54 56 57 57 58 59 55 49 48 48 46 44 43 42 40 39 40 42 43 40 36 37 38 37 40 43 42 39 38
18 19 21 23 26 28 30 32 33 33 31 28 24 22 21 23 26 30 33 33 32 32 31 31 33 35 37 39 42 45 48 49 49 48 47 47 47 48 48 48 48 48 46 45 45 45 46 48 49 50 50 51 52 52 53 54 53 54 54 55 57 58 59 63 63 56 52 52 52 49 46 43 41 42 44 46 45 42 38 38 40 40 40 40 40 39 38
21 23 25 27 29 31 32 32 32 30 27 23 20 20 21 25 29 33 34 33 32 32 31 32 33 35 38 40 43 46 48 49 49 48 48 48 48 48 48 48 47 47 46 46 46 47 48 48 48 49 49 49 50 51 52 53 53 53 54 54 55 57 58 59 62 60 55 54 53 50 47 46 46 47 48 47 44 42 40 39 40 40 39 37 37 38 37
24 26 28 29 29 30 30 30 28 26 22 19 19 20 24 28 32 34 33 33 32 32 32 32 34 36 38 42 44 46 48 49 49 49 48 48 48 47 47 47 47 47 47 47 48 49 49 49 49 48 47 47 48 49 50 51 52 53 55 55 54 56 57 56 59 63 59 56 55 52 51 52 51 49 48 44 43 44 41 38 38 38 37 36 36 36 35
26 27 28 28 28 27 27 26 24 21 19 18 19 22 26 30 33 34 33 33 32 32 32 33 34 36 39 42 44 46 48 49 49 49 48 48 47 46 46 47 47 48 48 49 49 50 49 49 48 47 47 46 46 47 47 49 51 52 54 55 53 53 55 53 55 59 59 57 57 56 54 53 50 46 43 41 44 45 41 37 36 36 35 35 34 33 33
26 26 26 25 25 24 23 22 20 18 18 19 21 24 28 32 33 34 33 33 33 32 33 33 35 37 39 42 44 46 47 48 48 49 49 48 47 47 46 47 47 48 48 49 49 49 48 47 47 47 46 46 45 45 45 45 47 49 51 53 52 51 52 52 51 54 55 51 51 51 48 47 45 42 40 41 42 43 42 39 36 35 34 33 32 31 31
25 24 23 22 21 21 20 19 18 17 18 19 22 26 30 33 34 34 34 34 33 33 33 34 35 37 39 41 43 45 46 47 47 48 49 48 48 47 47 47 48 48 49 49 49 48 48 47 47 46 45 45 45 44 44 43 44 45 46 49 49 47 47 47 46 47 48 45 44 45 44 43 43 42 40 39 38 40 45 42 36 35 34 31 30 30 30
22 21 19 19 18 18 17 17 17 17 18 20 24 28 31 33 34 34 34 34 34 34 34 35 36 38 39 41 43 44 46 46 47 48 48 48 48 48 48 48 48 48 48 48 47 47 46 45 45 44 43 44 44 43 43 43 42 43 43 45 46 45 44 44 42 42 43 43 43 45 46 44 43 41 38 36 37 40 44 43 37 34 32 30 29 29 28
19 18 17 17 16 16 16 16 16 17 19 22 25 29 31 33 34 34 35 35 35 35 35 36 37 38 40 41 42 44 45 46 47 47 48 48 48 48 48 48 47 47 46 45 45 45 44 43 43 42 41 42 42 43 43 43 42 42 41 43 44 44 42 42 42 41 41 42 43 45 47 45 41 39 37 38 39 38 39 41 37 32 31 30 28 27 29
17 16 16 16 16 16 16 16 17 18 20 23 27 30 32 33 34 35 35 36 36 36 36 37 37 38 39 41 42 43 44 45 46 46 47 47 47 47 46 45 45 45 44 43 43 43 42 41 41 41 41 41 42 42 42 42 42 41 41 42 43 44 42 42 43 42 41 42 42 42 45 45 44 43 41 39 37 34 33 36 35 31 30 28 26 28 30
17 16 16 16 16 16 17 17 18 19 22 24 28 31 32 34 35 36 36 37 37 37 37 37 37 38 39 40 41 42 43 44 45 46 46 46 46 46 45 44 44 43 43 43 43 41 40 40 40 41 42 41 41 42 43 43 44 44 43 44 46 46 45 43 44 43 41 41 41 42 44 44 43 41 38 34 32 31 30 31 31 30 28 26 27 29 30
17 17 17 16 17 17 18 19 20 21 23 25 28 31 32 34 36 37 37 38 38 38 38 38 38 39 39 40 41 42 43 44 45 45 45 45 45 44 44 43 43 43 43 43 43 42 42 42 42 43 44 44 44 45 47 49 50 49 48 48 48 48 46 44 44 43 41 40 40 40 39 37 35 34 32 30 30 29 27 27 28 28 26 27 28 30 35
19 18 18 18 18 18 19 19 21 22 24 26 28 30 32 34 35 37 38 39 40 40 40 40 40 40 40 40 41 41 42 43 43 44 44 43 43 43 43 43 43 43 44 44 44 45 45 45 46 46 48 49 47 48 50 52 53 53 50 48 49 48 47 45 44 43 42 40 38 37 35 32 30 30 30 29 29 28 26 25 25 26 26 27 29 36 46
20 20 20 20 20 20 20 21 22 23 24 26 28 30 32 34 35 37 38 39 41 42 42 42 42 43 43 43 43 42 43 42 42 43 43 43 43 43 43 44 44 44 45 46 46 47 48 48 48 48 50 51 49 49 50 50 50 50 48 46 46 45 44 43 42 41 40 39 37 37 36 33 30 29 30 29 29 28 26 23 24 25 26 29 37 47 54
23 23 22 22 22 22 22 22 22 23 24 26 27 29 30 31 33 35 36 37 39 40 40 41 42 43 44 44 44 44 44 43 43 43 43 43 43 43 44 44 44 45 45 46 47 47 48 49 48 48 50 51 49 48 48 47 46 45 43 42 42 42 41 41 41 40 39 38 36 35 35 34 31 30 30 28 27 26 26 25 25 26 29 39 49 56 57
25 25 25 24 24 24 24 24 24 24 24 25 26 27 28 29 29 30 32 32 34 35 35 36 37 39 40 40 41 41 41 41 42 42 43 44 43 44 45 44 44 44 45 45 45 45 46 47 46 45 46 46 45 44 43 42 42 40 39 38 38 38 38 39 39 38 37 37 33 31 32 34 32 29 28 27 26 26 27 27 26 29 40 53 59 59 59
27 27 27 27 27 27 27 26 26 26 26 26 27 27 28 28 28 29 30 30 31 31 32 32 33 34 34 35 35 36 36 36 37 37 38 39 39 39 40 40 40 40 40 40 41 40 40 41 41 40 41 41 40 40 40 41 41 39 37 36 36 35 35 36 36 36 36 38 35 32 34 34 31 29 29 27 27 27 27 27 30 41 55 63 62 60 62
25 26 27 28 28 29 30 30 30 31 31 31 31 31 32 32 33 33 34 35 35 36 37 38 39 40 40 41 41 42 41 41 41 41 41 41 41 41 41 40 39 39 38 38 38 38 37 37 37 37 37 36 37 37 37 38 38 38 37 35 34 36 38 39 41 43 49 53 47 41 44 40 34 34 36 32 28 26 26 32 44 57 64 64 61 61 62
23 24 24 25 26 26 27 28 29 30 31 32 33 35 36 37 38 39 40 42 43 44 46 48 49 49 50 51 51 51 50 50 50 50 51 52 52 52 52 53 53 53 52 51 49 48 47 45 43 42 40 39 39 39 38 39 39 41 42 43 45 52 58 62 65 70 79 80 66 60 65 57 39 35 38 33 27 29 36 47 59 65 65 62 62 62 60
25 26 26 26 27 27 27 27 28 28 30 31 32 34 36 36 37 38 39 40 40 41 42 43 44 44 45 45 44 44 44 44 45 45 46 47 48 49 51 53 55 58 60 62 63 64 64 63 61 59 56 55 54 53 54 56 56 60 64 66 71 81 85 86 88 92 100 100 85 75 78 66 42 32 33 30 32 44 58 66 69 68 65 64 64 62 58
27 27 27 28 28 29 29 30 30 31 32 33 34 34 35 35 35 34 34 34 35 35 35 36 36 36 36 36 35 35 36 36 37 37 37 38 39 39 40 41 43 45 48 51 56 61 67 71 72 71 71 71 71 72 75 76 78 85 88 85 89 100 100 96 96 96 94 89 76 65 64 55 36 28 33 39 49 66 77 78 74 71 67 65 64 61 57
27 27 27 28 28 28 29 29 30 31 32 32 32 32 32 32 31 31 31 31 31 31 32 34 36 38 40 42 44 46 48 50 52 53 53 53 51 49 47 44 43 42 41 43 45 49 55 63 69 74 77 79 81 86 89 90 93 96 93 86 90 100 99 90 87 84 75 63 51 43 43 40 32 36 53 66 73 80 83 79 74 72 67 63 61 59 58
26 25 26 26 25 26 26 27 28 28 28 29 29 28 28 28 28 29 30 32 34 38 42 48 53 56 60 64 68 70 72 73 73 73 72 71 69 67 64 60 56 52 47 45 44 44 46 53 59 66 73 78 85 92 96 98 99 95 86 81 83 85 78 66 59 57 51 42 33 31 37 44 51 65 82 86 80 76 75 70 66 66 63 59 58 59 60
23 23 24 23 23 24 24 25 25 25 25 26 26 27 29 31 34 38 42 47 53 59 65 71 74 76 77 79 79 78 76 73 71 68 67 66 67 69 71 70 68 64 59 54 52 49 49 51 54 59 65 70 78 87 92 96 96 85 72 66 64 58 50 43 36 34 34 33 35 42 51 59 68 77 82 77 68 65 64 60 57 60 60 57 57 60 63
23 23 23 23 23 24 24 25 26 27 28 31 34 38 44 51 56 62 68 72 75 77 77 78 76 74 72 70 66 62 59 56 55 54 55 57 61 65 70 72 73 72 70 66 63 60 58 57 58 60 63 66 72 80 83 82 76 63 50 45 43 38 35 33 31 33 41 49 58 68 72 70 67 68 69 64 58 57 58 57 57 59 60 60 63 69 75
25 26 28 29 30 32 35 37 41 46 50 56 62 68 73 76 78 79 77 74 69 64 60 55 51 48 46 43 40 39 39 39 40 43 46 52 58 64 69 72 73 74 73 71 69 67 64 63 61 59 59 60 64 67 64 55 48 40 34 33 34 33 35 40 45 53 65 74 78 80 77 69 62 61 63 61 57 57 60 61 63 66 68 71 77 84 89
38 41 44 48 50 53 57 61 66 71 75 78 79 77 73 69 63 57 51 46 40 36 33 31 28 27 27 26 25 25 26 27 29 32 36 41 47 52 58 62 63 63 63 61 60 58 55 53 50 45 42 42 43 41 37 32 32 33 34 37 43 49 58 66 69 70 74 76 74 71 68 63 60 62 67 68 67 66 68 71 76 80 81 83 86 89 91
55 59 62 64 66 68 70 71 72 72 71 68 62 55 48 42 36 31 28 26 24 23 22 21 20 20 19 18 18 19 18 19 20 21 22 25 28 31 35 37 38 39 39 38 39 37 35 33 32 29 28 29 30 30 31 34 40 46 51 55 61 67 73 76 74 69 68 67 65 66 70 72 73 74 74 75 75 74 75 81 87 88 88 89 90 90 92
64 65 66 66 64 62 61 60 57 55 50 44 38 33 29 25 23 22 21 20 20 20 19 18 18 18 18 18 18 18 18 18 18 18 18 19 19 20 22 22 23 24 24 25 25 25 25 26 27 28 31 33 36 40 44 46 49 55 60 64 68 69 67 66 65 65 68 69 68 70 74 79 82 81 78 77 80 80 80 84 88 87 89 94 96 95 96
59 57 55 51 49 47 45 42 39 36 31 27 24 23 22 21 21 21 21 20 20 20 20 20 20 19 19 19 19 18 19 18 18 19 20 20 20 21 21 22 23 24 25 27 28 30 33 35 37 40 43 45 48 53 55 52 51 55 59 61 64 64 64 65 68 71 75 76 74 71 69 71 76 82 84 86 88 87 85 86 89 90 93 99 101 99 99
43 40 38 37 36 35 33 30 27 25 23 22 22 22 22 22 22 22 22 22 21 21 20 21 22 22 23 24 24 25 25 25 25 26 26 27 28 29 29 31 33 33 36 39 40 41 44 46 46 50 54 54 54 55 55 52 52 56 58 58 59 61 64 69 72 74 77 80 79 77 75 74 78 85 90 92 94 94 93 94 96 97 99 102 103 101 99
32 31 30 29 28 26 25 23 23 23 23 23 23 23 23 23 23 23 23 23 24 25 26 28 29 32 34 35 35 35 36 36 36 37 37 37 39 39 40 42 44 44 45 48 50 50 51 50 49 51 56 58 57 56 56 57 59 59 59 59 59 59 61 64 67 70 77 85 88 87 86 86 88 91 93 95 98 100 100 101 101 101 101 101 101 101 99
27 26 24 24 23 23 23 23 23 24 24 24 24 24 25 25 25 26 28 30 32 35 38 40 41 41 43 45 44 44 44 45 45 45 45 46 48 49 50 51 52 52 52 54 55 54 53 53 51 51 57 63 62 59 59 61 63 64 64 63 63 62 62 64 66 70 78 87 92 92 92 95 99 100 98 98 100 102 101 100 100 100 100 101 102 102 102
23 22 22 22 23 23 23 24 24 25 25 26 27 28 29 31 34 36 39 42 44 46 47 50 51 52 52 54 53 51 50 50 50 50 52 53 53 55 57 58 59 59 59 60 61 60 61 61 58 55 60 65 62 58 59 60 60 62 65 68 70 72 73 74 76 77 82 90 97 100 101 104 106 105 102 101 101 101 101 101 101 101 100 100 102 103 104
22 22 22 23 23 23 25 27 28 29 30 32 34 36 38 41 43 45 47 50 52 54 56 59 61 61 61 61 60 57 55 54 52 53 55 56 55 56 59 62 65 67 67 69 72 71 72 73 68 63 68 72 66 62 67 71 70 71 75 80 84 87 88 88 89 88 90 94 99 102 102 103 103 102 101 101 101 101 101 102 102 102 102 101 101 103 104
22 23 23 23 24 27 31 34 34 35 36 39 42 45 47 49 51 52 54 56 57 60 62 64 65 67 66 65 63 60 57 55 53 51 50 50 52 55 57 61 67 70 71 75 77 76 77 83 83 79 82 86 81 76 81 87 89 92 96 100 103 104 103 103 102 100 99 100 101 101 100 100 100 100 100 99 100 100 101 101 102 103 103 101 100 100 102
23 23 23 25 29 34 38 39 39 41 43 46 49 52 54 56 57 57 58 59 60 62 65 67 68 70 71 70 69 67 64 60 56 53 50 48 49 52 54 57 63 67 69 74 80 82 86 95 100 98 98 99 96 93 96 100 101 103 105 105 105 105 104 103 103 102 101 101 101 101 101 102 102 101 101 100 101 101 102 102 101 101 101 101 101 100 100
23 23 26 32 38 42 43 44 46 50 52 53 55 57 58 59 59 58 58 58 58 59 62 65 66 68 70 71 72 74 74 70 65 62 60 57 57 61 64 65 66 69 72 76 84 93 100 105 107 105 104 103 101 101 102 103 102 103 105 104 103 102 102 101 101 101 103 103 101 100 101 101 101 102 102 102 103 103 103 104 104 103 102 101 99 95 90
26 30 37 43 47 49 51 53 55 57 57 56 55 56 56 55 54 55 58 59 60 59 60 62 63 65 68 69 67 67 69 70 67 65 64 64 64 69 75 77 76 76 76 77 85 97 105 106 105 103 102 102 103 105 105 104 102 102 103 103 103 103 104 103 101 100 102 103 102 102 102 102 102 103 104 105 105 104 104 104 104 100 94 89 85 81 77
35 41 47 50 52 53 56 58 57 56 56 56 55 54 53 51 51 55 59 62 62 62 62 61 61 62 64 65 62 57 57 60 60 59 61 65 69 72 77 82 82 81 81 84 92 101 107 107 105 104 103 104 107 107 107 108 108 106 104 105 106 105 105 105 104 103 104 105 105 105 106 105 104 104 105 106 106 104 100 96 92 85 79 74 72 70 68
44 47 50 53 55 56 56 57 57 55 56 57 56 54 54 56 58 60 62 61 60 61 61 61 60 59 60 60 57 53 53 57 60 61 63 69 74 78 83 86 86 84 86 90 96 101 106 109 109 108 107 108 109 109 109 110 110 108 105 105 106 106 105 105 106 107 107 105 103 104 105 105 104 102 101 100 98 92 85 80 75 71 67 64 62 61 60
48 50 51 53 56 58 57 58 59 59 59 59 59 60 63 66 69 68 66 63 61 60 60 60 58 56 54 53 52 51 53 58 64 69 71 73 78 83 85 84 84 85 87 89 91 95 101 106 107 107 107 107 107 107 108 107 107 107 106 105 105 106 105 105 105 106 106 104 103 103 103 99 95 89 83 79 76 73 69 66 63 60 58 56 54 53 52
50 52 52 52 55 58 59 61 63 64 63 63 64 67 70 73 74 71 67 62 59 58 56 55 54 52 49 49 51 54 58 64 71 77 79 78 80 82 83 82 83 85 86 88 91 96 101 104 105 105 106 105 104 105 106 107 107 108 107 104 102 102 101 102 104 105 105 102 98 93 86 79 72 65 60 58 57 57 57 55 53 51 49 48 45 44 43
52 54 55 54 55 58 59 61 63 66 66 66 68 71 74 74 71 67 61 56 53 53 52 51 50 50 49 51 56 62 68 75 81 83 81 79 79 82 84 85 89 91 93 96 100 102 104 105 106 106 107 107 106 106 107 107 105 104 103 102 102 102 101 100 99 96 90 83 75 67 61 57 53 50 48 46 45 45 45 45 43 42 40 38 36 35 34
53 55 57 57 58 59 59 58 60 64 67 69 71 73 73 70 65 60 55 51 50 51 51 51 50 51 54 58 65 73 81 86 87 85 82 81 83 88 91 95 98 101 101 99 99 99 101 104 105 106 106 105 104 104 105 105 104 104 104 103 100 96 90 84 78 71 64 59 54 50 48 46 44 42 40 38 37 37 37 36 35 34 32 30 29 28 27
53 56 58 59 59 59 59 59 60 63 66 70 73 73 70 65 60 57 55 55 55 55 55 56 56 58 63 69 76 84 90 91 88 85 85 86 90 95 97 98 98 97 94 93 94 98 102 104 104 103 103 103 103 103 104 104 103 101 96 90 83 76 69 63 58 54 51 48 45 43 42 40 38 37 36 34 33 32 30 29 28 26 24 22 20 19 18
55 57 59 60 61 62 62 63 64 66 68 70 71 69 65 61 59 59 61 63 63 63 64 66 69 73 79 86 92 96 96 91 86 85 88 93 95 95 92 90 88 88 91 96 101 104 103 101 99 98 98 99 101 102 101 97 92 86 79 72 65 60 55 52 50 47 45 42 40 39 37 35 34 33 31 29 27 25 23 22 20 18 16 14 13 12 11
57 59 61 62 63 64 66 67 69 72 74 74 71 67 64 64 67 70 73 74 75 77 80 83 86 91 98 102 102 97 91 86 85 88 90 91 89 87 85 86 89 93 97 99 99 96 93 91 90 91 92 94 96 95 91 85 77 70 64 60 56 53 50 48 46 43 40 37 35 33 31 29 27 26 24 22 20 18 16 14 13 11 10 9 9 8 8
59 61 63 65 66 68 70 72 74 77 79 79 76 74 75 79 83 86 87 88 89 91 95 97 100 103 104 101 94 88 86 86 88 88 86 86 86 88 90 91 92 91 88 84 82 84 88 93 95 97 97 95 90 83 76 69 64 60 57 55 52 49 46 42 38 35 32 29 26 25 23 22 20 18 16 14 13 11 10 9 8 8 7 7 7 7 6
Wind_Speed
18 18 18 18 17 17 17 16 16 16 17 17 17 16 16 16 16 17 17 18 19 20 20 20 21 21 21 21 20 20 20 21 22 23 24 26 26 27 27 27 27 27 28 28 28 29 29 31 32 33 35 36 38 39 40 42 43 44 45 47 48 50 50 51 51 53 56 57 58 61 63 64 67 71 73 74 74 73 75 77 78 80 82 81 79 81 85
18 17 17 16 16 15 15 16 16 17 16 16 16 16 16 16 17 17 18 19 20 21 21 21 21 21 21 21 20 21 21 22 23 25 26 27 28 28 29 29 29 29 30 30 30 31 31 32 33 34 36 38 39 41 42 43 44 45 46 48 50 51 52 52 52 52 55 57 59 60 63 65 66 70 73 74 74 74 75 77 78 78 81 82 79 79 84
17 16 15 15 15 15 16 16 16 16 16 15 15 16 16 17 17 18 19 20 21 21 21 21 21 21 21 21 21 22 22 23 25 26 27 28 29 29 30 30 31 31 32 32 32 33 33 34 35 36 38 39 41 42 43 44 45 46 47 49 51 52 53 54 54 55 56 59 61 62 65 68 69 71 73 75 77 77 77 78 78 78 80 83 82 79 80
15 14 14 14 14 15 15 15 15 15 15 15 15 16 17 18 18 19 20 21 21 22 22 22 22 22 22 22 22 23 24 25 26 27 28 29 30 30 31 32 32 33 33 34 34 35 35 36 37 38 39 41 42 43 45 46 46 48 49 50 52 53 55 57 58 59 60 63 66 68 69 71 73 74 75 78 79 79 79 79 80 80 80 82 84 82 80
14 13 13 14 14 15 15 15 15 15 15 16 16 17 18 18 19 21 22 22 22 22 22 22 22 22 22 22 22 23 25 26 27 28 29 30 30 31 32 33 33 34 35 35 36 36 37 38 39 40 42 43 44 45 46 47 48 49 50 51 53 55 56 58 61 62 63 65 68 71 72 73 75 76 77 79 80 81 80 80 81 82 81 80 83 84 83
13 12 13 13 14 14 14 15 15 16 16 16 17 17 18 19 20 21 22 22 22 23 23 23 22 22 22 23 23 24 26 27 28 29 30 31 31 32 33 34 35 35 36 36 37 38 39 40 41 42 44 45 46 47 48 49 50 51 52 53 54 56 57 59 62 65 66 68 70 72 74 75 76 78 79 79 80 81 81 80 80 81 81 80 80 82 84
12 12 12 13 13 14 14 15 16 16 17 17 18 18 19 20 21 22 22 22 23 23 23 23 23 23 23 24 25 26 27 28 29 30 31 32 33 34 35 36 36 37 38 38 39 40 41 43 44 45 46 47 48 49 49 50 51 52 54 55 56 57 59 60 62 66 68 70 72 74 76 77 78 78 79 79 79 80 80 79 79 80 80 80 79 80 82
11 11 12 13 13 14 15 16 17 17 17 18 18 19 20 21 22 23 23 23 23 23 24 24 24 24 24 25 26 27 28 30 31 31 32 33 35 35 36 37 38 39 40 41 42 43 45 46 47 48 48 49 50 51 51 52 53 54 55 56 57 58 60 61 62 66 69 71 73 75 76 77 78 78 77 78 79 81 81 80 79 79 79 79 79 79 80
11 12 12 13 14 14 15 16 17 18 18 18 19 20 20 21 23 23 24 24 24 24 24 24 24 25 25 26 27 28 29 31 32 33 34 35 36 37 38 39 40 41 42 43 45 46 47 48 50 50 51 52 52 53 53 54 55 56 57 58 59 59 61 62 63 65 69 70 71 74 75 75 76 76 76 77 78 80 82 82 80 80 79 78 78 79 79
11 12 13 13 14 15 16 17 18 18 18 19 20 20 21 22 23 24 24 25 25 25 25 25 25 26 26 27 28 29 30 32 33 34 36 37 38 39 40 41 42 43 45 46 47 49 50 51 52 53 54 54 55 55 55 56 57 58 58 60 61 62 62 64 64 66 69 70 71 72 74 74 74 75 76 76 76 78 83 84 82 80 80 78 78 79 80
12 12 13 14 14 15 16 17 18 18 18 19 20 21 22 23 24 25 25 26 26 26 26 26 26 27 27 28 29 30 31 33 34 35 37 38 40 41 42 43 44 46 47 48 49 51 52 53 54 54 55 55 56 57 57 58 59 59 60 62 63 64 65 66 66 66 68 70 70 71 73 74 74 75 75 75 76 78 82 85 83 80 80 79 78 79 79
12 12 13 13 14 15 16 17 18 18 19 19 20 22 23 24 25 26 26 27 27 27 27 27 27 28 28 29 30 31 32 34 35 37 38 40 41 42 43 44 46 47 48 49 50 51 52 53 53 54 54 55 56 57 58 59 60 61 62 63 64 65 66 67 67 67 67 68 69 70 72 75 75 75 75 76 77 76 78 83 84 82 81 80 79 79 79
12 12 13 13 14 14 15 16 17 18 19 19 21 22 23 24 25 26 27 28 28 28 28 28 29 29 30 31 31 32 34 35 36 38 39 41 42 43 44 45 46 47 48 48 49 50 50 51 51 52 53 54 56 57 59 60 61 62 62 63 64 65 66 66 67 67 67 67 69 69 71 75 76 76 77 76 76 75 73 77 82 81 80 79 77 77 77
12 12 12 13 13 14 15 15 16 17 18 20 21 23 24 25 26 27 28 28 29 30 30 30 31 31 31 32 33 34 35 36 38 39 40 41 43 44 45 46 46 46 47 47 48 48 48 49 50 51 52 54 55 56 58 60 61 61 62 63 64 64 65 66 67 68 67 67 69 69 71 73 75 75 76 75 74 73 71 73 77 78 77 76 75 75 75
11 11 12 13 13 13 14 15 16 17 19 20 22 23 24 25 26 27 28 29 31 31 32 32 33 34 34 35 35 36 37 38 39 40 42 43 44 44 45 45 46 46 46 47 47 48 48 48 49 50 52 53 54 55 57 59 61 62 62 63 64 65 66 67 68 69 69 69 69 70 71 73 73 73 74 73 73 72 71 71 73 73 72 72 72 72 72
11 11 12 12 13 13 14 15 16 17 19 20 22 23 25 26 27 28 29 30 31 32 33 34 35 36 37 37 38 39 39 40 41 42 43 44 45 45 46 46 47 47 48 48 49 49 49 50 50 51 52 54 54 55 57 59 60 62 63 64 65 66 67 68 70 71 71 72 72 72 73 73 73 73 74 74 74 73 71 69 68 68 67 67 68 69 70
11 11 12 12 13 13 15 15 16 18 19 20 22 24 25 26 27 28 29 30 32 33 34 35 36 38 39 40 41 41 42 43 43 44 45 46 46 47 48 49 49 49 50 50 51 51 52 52 53 53 54 56 57 57 58 61 62 63 65 65 66 67 68 69 70 72 72 73 73 73 75 76 75 74 74 74 74 74 72 68 64 63 62 64 66 67 69
11 11 12 12 13 14 15 16 17 19 20 21 22 24 25 27 28 29 30 31 32 34 35 36 37 39 40 41 42 43 44 44 45 46 47 48 49 49 50 51 52 52 53 53 53 54 55 55 56 55 56 59 60 59 61 63 64 65 65 65 66 67 67 68 70 71 72 74 73 73 74 77 76 75 74 73 72 71 69 67 63 61 62 63 65 67 70
12 12 13 13 14 15 16 17 18 20 21 22 23 25 26 27 28 29 30 31 32 34 35 36 37 39 40 41 42 43 44 45 46 47 48 49 50 51 52 53 53 53 54 55 55 55 56 57 58 57 58 59 60 60 61 63 65 65 65 64 65 66 66 67 69 71 72 74 75 73 72 74 75 73 72 71 69 67 64 62 61 61 62 63 66 69 72
13 14 14 15 16 17 17 18 19 20 22 23 24 25 26 27 28 29 30 31 32 33 35 35 36 37 39 40 41 42 43 44 45 46 47 48 49 49 50 52 52 53 53 54 55 55 55 56 58 58 58 59 60 60 61 62 65 67 65 65 65 66 66 66 69 70 71 73 74 72 70 70 71 69 68 66 64 62 60 59 60 61 62 64 68 71 74
15 15 16 17 18 18 19 20 21 22 23 23 24 25 26 27 28 28 29 30 31 32 34 34 35 36 38 39 40 41 42 42 43 44 45 46 47 47 48 49 50 50 51 52 53 54 54 55 56 57 58 59 59 60 60 61 63 66 66 66 65 65 65 65 66 66 67 69 70 69 68 68 67 65 65 63 60 58 57 58 59 61 63 66 70 72 75
16 17 17 18 19 20 21 21 22 23 24 24 24 26 27 27 28 28 29 30 31 32 33 34 35 36 37 39 40 41 41 42 43 43 44 45 46 46 46 47 48 48 49 49 50 51 52 53 53 54 55 56 56 57 58 58 59 61 62 62 61 60 60 61 62 62 64 67 68 67 68 68 65 61 60 60 58 57 58 58 59 62 65 69 72 74 76
16 17 18 19 20 20 21 22 22 23 24 24 25 26 27 27 28 29 30 31 32 33 34 35 36 38 38 40 41 41 42 43 44 44 45 45 46 47 47 47 48 48 49 48 48 49 49 50 50 50 51 51 51 52 53 53 54 55 56 57 56 56 58 59 60 61 63 66 68 67 67 68 64 58 56 57 57 58 59 60 62 65 68 71 73 75 78
17 18 18 19 20 20 21 21 22 22 23 23 24 25 26 27 28 29 30 31 32 33 34 35 36 37 38 38 39 39 40 41 41 42 42 43 44 45 46 46 47 48 49 49 48 48 48 49 49 48 48 48 48 48 49 50 51 52 54 55 54 56 59 60 61 62 63 64 64 63 63 63 59 55 54 55 55 57 60 63 66 68 70 72 75 78 80
18 18 19 19 20 20 21 21 21 22 23 23 24 25 26 27 28 28 29 30 30 31 32 32 33 34 34 35 36 36 37 38 38 39 40 41 42 43 43 44 45 46 47 47 48 48 48 48 48 48 48 48 48 49 50 50 51 52 55 56 55 56 59 60 60 61 62 60 57 55 56 58 57 54 54 55 56 58 62 66 68 70 72 74 77 79 81
18 19 19 20 20 20 20 21 21 22 23 23 24 25 25 26 26 27 28 28 29 30 30 31 33 34 34 35 37 38 38 39 40 41 41 42 42 43 43 44 44 45 45 46 47 47 47 48 48 48 48 48 48 50 51 52 53 55 56 57 57 57 58 57 54 54 55 52 49 47 48 52 55 55 55 57 59 61 64 67 69 72 74 76 77 80 81
18 19 19 19 20 20 20 21 21 22 23 23 24 24 25 25 26 27 28 30 30 32 33 34 36 37 38 40 41 42 43 43 44 44 44 44 44 43 44 44 44 44 44 44 45 45 45 46 47 47 47 47 48 50 51 53 55 57 57 56 55 54 53 50 47 45 46 46 46 45 45 47 51 54 57 59 61 63 66 69 71 73 75 77 79 80 81
18 18 18 19 19 20 20 21 21 22 22 23 24 25 26 27 28 29 31 33 34 36 37 39 40 41 42 43 44 44 45 45 44 44 44 43 43 43 43 43 43 43 43 43 43 44 44 45 45 46 47 47 47 49 51 53 55 54 52 50 49 47 45 44 42 41 43 45 46 48 50 51 53 57 60 63 64 66 69 71 73 75 77 79 81 83 83
17 18 18 19 19 20 21 21 22 22 23 24 25 26 28 29 31 33 35 36 37 38 39 40 40 40 41 41 41 41 41 41 41 41 40 40 40 40 41 41 42 42 43 43 43 43 44 45 45 45 46 46 46 48 49 49 49 47 43 41 42 42 42 42 42 42 44 46 49 51 54 56 57 60 64 66 67 68 71 74 77 78 80 81 83 84 85
18 19 19 20 21 21 22 23 23 24 25 26 28 29 31 32 33 34 35 35 35 35 36 36 36 36 36 36 36 36 36 36 36 36 36 36 37 37 38 39 39 40 41 41 42 42 42 43 43 42 41 40 40 41 40 39 40 40 38 37 38 40 42 44 46 46 47 49 51 54 57 59 60 62 65 69 71 72 74 77 80 81 82 84 85 86 87
20 21 22 22 23 24 24 25 26 27 27 28 29 30 30 30 30 30 30 30 30 30 30 30 30 30 30 30 30 30 31 31 31 31 32 32 32 33 34 34 35 36 36 37 37 37 36 36 36 35 33 32 32 33 32 32 34 36 38 38 40 41 43 46 49 50 51 52 53 55 59 63 65 66 68 72 75 78 79 81 83 84 85 86 87 88 89
23 23 24 25 25 25 26 26 26 26 26 25 25 25 25 24 24 24 24 24 24 24 24 25 25 25 26 26 26 26 26 26 27 27 27 27 27 27 28 29 29 29 29 29 29 30 29 29 29 29 28 29 31 32 33 33 34 37 40 41 43 45 46 48 50 52 55 57 57 57 60 65 69 72 74 77 80 82 83 84 85 86 87 88 90 91 92
24 24 25 24 24 23 22 22 21 20 20 20 19 19 19 18 18 18 19 19 20 20 21 22 23 23 24 25 25 26 26 26 26 26 26 26 26 26 26 26 26 26 26 26 26 27 28 28 28 29 30 31 33 35 36 38 39 41 42 44 45 46 48 51 54 56 60 63 65 65 66 69 72 76 79 81 83 86 86 87 88 89 90 91 93 95 96
23 22 21 20 19 18 17 16 15 15 15 14 14 13 14 14 15 16 17 18 19 20 21 23 24 25 26 27 28 29 29 30 30 30 29 29 29 29 29 28 28 28 28 28 28 29 29 30 31 32 33 35 36 38 41 43 44 45 46 47 47 48 50 54 58 62 65 68 71 74 75 76 77 80 82 84 86 88 89 90 92 93 93 94 97 99 99
18 17 15 14 13 13 12 11 10 10 9 9 9 10 12 13 15 16 18 19 20 22 24 25 26 27 28 29 30 30 30 31 31 31 31 31 31 31 31 30 30 30 31 31 31 32 33 34 35 36 37 38 40 42 44 47 48 49 50 51 53 54 56 58 61 64 68 72 74 77 79 80 82 83 84 86 88 89 90 92 94 96 96 97 99 102 103
13 12 10 9 9 8 7 6 5 6 6 7 9 11 12 14 16 17 19 20 22 23 25 26 27 28 28 29 29 30 30 31 31 32 32 32 32 33 33 33 33 34 34 34 35 36 37 38 39 40 41 43 46 47 48 50 52 54 55 57 59 60 61 63 64 66 69 73 76 78 80 82 85 86 88 89 90 92 93 95 97 98 99 100 102 104 106
9 8 7 5 4 3 3 4 5 6 7 8 9 11 13 15 16 18 20 21 23 24 25 26 27 28 29 29 30 31 31 32 33 34 34 35 35 35 36 36 37 37 38 38 39 41 42 43 44 45 46 48 51 53 54 55 57 58 60 61 62 64 65 67 69 71 73 75 78 81 83 84 86 88 90 90 92 94 96 98 100 101 102 103 105 107 110
6 5 3 2 2 4 5 5 5 5 6 8 10 12 14 15 17 18 20 21 22 24 25 26 27 28 29 30 31 32 33 34 35 35 36 37 38 38 38 38 39 40 41 42 43 44 46 48 49 50 51 54 56 57 59 61 63 64 65 66 67 68 69 72 74 77 78 79 80 82 83 84 85 87 89 91 92 95 98 101 103 105 107 108 109 111 112
3 2 0 2 4 6 6 5 4 5 7 9 11 12 14 15 17 18 20 21 23 24 26 27 28 29 31 32 33 34 35 36 37 37 38 39 40 40 41 41 41 42 43 44 46 47 49 52 54 55 56 58 60 61 63 65 67 69 71 72 73 74 75 77 80 82 83 84 85 86 88 89 90 91 92 94 95 98 101 104 106 109 110 111 112 113 114
1 2 3 5 6 6 4 3 4 6 8 9 11 12 14 15 16 18 20 21 23 25 26 28 29 30 32 33 34 36 37 38 40 41 43 44 44 44 44 44 44 45 47 48 50 51 53 55 57 59 60 61 64 65 67 68 70 72 74 75 77 78 79 81 83 85 86 88 89 92 94 96 98 99 100 101 102 104 105 107 109 111 113 114 115 116 117
3 4 5 5 5 4 2 3 5 6 8 10 11 12 14 15 17 18 20 22 24 25 27 28 30 31 33 34 35 36 38 39 41 43 45 46 47 48 48 47 47 48 50 51 53 54 55 57 59 61 62 64 66 67 69 70 72 73 75 77 79 81 82 84 86 88 90 92 93 95 97 100 102 104 106 107 108 109 110 111 112 113 115 116 118 120 122
5 5 5 5 3 1 2 4 6 8 9 11 12 13 15 16 18 20 22 24 26 28 29 31 32 34 35 36 37 38 39 40 42 44 45 47 48 48 49 50 50 51 52 54 55 56 57 58 60 63 65 66 68 69 71 72 73 75 77 79 81 83 85 86 88 91 94 96 97 98 100 102 104 107 109 110 111 111 113 114 116 117 118 120 121 124 126
6 6 5 3 1 2 4 6 8 10 12 14 15 17 18 19 21 23 25 27 29 31 33 34 36 37 38 39 41 42 43 44 45 47 48 49 50 50 50 52 53 54 55 56 57 59 60 61 63 65 68 70 72 73 74 75 76 78 80 82 85 87 88 90 92 94 96 99 101 102 104 105 106 108 110 113 114 115 116 118 120 122 124 125 126 128 130
6 5 3 3 3 5 7 10 12 14 16 17 18 20 22 24 25 27 29 31 32 34 36 38 39 41 42 43 45 46 47 49 50 51 51 52 52 53 53 54 55 56 57 58 60 61 63 65 67 69 71 73 75 77 78 79 80 81 83 85 87 90 91 93 95 97 99 101 103 105 107 108 109 111 113 115 118 120 122 124 126 128 129 130 131 132 134
6 5 4 5 6 9 11 13 15 17 19 20 22 23 25 27 29 31 32 34 36 38 39 41 43 44 45 47 48 50 51 53 54 55 56 55 56 57 57 58 59 60 61 62 64 65 67 69 71 73 75 76 78 80 82 84 85 86 86 87 89 92 94 96 99 101 104 106 107 109 111 113 115 116 118 120 123 125 128 129 131 132 133 134 134 135 136
6 6 7 8 10 12 14 16 18 20 22 23 25 27 28 30 32 34 35 37 39 41 43 44 46 48 49 50 52 53 55 56 58 59 60 59 59 60 61 62 64 65 66 68 69 70 71 73 75 78 80 81 82 84 86 88 89 91 92 93 94 96 99 102 104 107 109 112 114 116 118 120 122 123 124 125 127 129 131 133 134 135 136 136 135 135 135
8 9 11 12 14 15 17 19 20 22 24 26 28 30 32 34 35 37 39 41 43 44 46 47 49 51 52 54 55 57 59 60 61 62 63 63 63 64 65 67 69 71 72 72 73 75 76 78 81 83 85 86 87 88 90 91 93 95 97 99 101 103 106 108 111 113 116 118 121 122 124 126 127 129 129 129 130 130 132 133 134 135 136 135 135 134 134
12 13 14 16 17 19 20 22 23 25 27 30 31 33 35 37 39 41 43 44 46 47 49 51 52 54 55 57 59 60 62 63 64 65 66 67 67 68 70 72 73 75 76 77 79 80 82 84 86 87 89 90 91 92 94 96 98 101 103 106 108 111 113 115 118 120 123 125 127 129 130 131 132 132 132 132 132 132 132 133 134 134 135 134 134 133 132
15 16 18 19 21 23 24 25 27 29 31 33 35 37 39 40 42 44 46 48 50 51 52 54 56 57 58 60 62 64 66 67 68 69 70 71 72 73 75 76 77 79 81 83 84 86 87 88 89 90 92 94 96 98 100 102 105 108 111 114 116 118 121 123 125 127 129 130 132 133 133 134 134 135 135 134 134 133 132 133 133 133 133 133 132 130 129
19 20 22 24 25 27 28 30 32 33 35 37 39 41 43 44 46 48 50 52 54 55 57 58 60 61 62 64 66 68 69 71 72 73 74 75 76 78 79 80 82 83 85 87 88 90 91 92 94 95 97 99 102 104 107 109 112 115 118 121 123 125 128 130 131 132 133 134 134 135 135 135 135 135 135 134 134 133 131 130 130 130 129 128 127 125 123
22 24 26 28 29 31 33 35 37 38 40 42 43 45 47 48 50 52 54 56 58 59 61 62 63 65 66 68 70 71 72 74 75 76 78 79 80 82 83 85 86 88 89 89 91 93 95 97 100 102 104 106 108 111 114 117 120 123 126 128 130 132 133 134 135 135 135 135 135 134 134 134 134 134 133 132 131 129 128 125 123 122 121 121 120 119 116
26 28 30 32 34 36 37 39 41 42 44 46 47 49 50 52 54 56 58 60 61 63 64 66 67 69 70 72 73 74 75 76 78 80 82 83 85 86 87 88 89 91 92 93 95 97 100 103 106 109 111 114 117 120 122 125 127 130 132 134 135 136 136 136 136 135 134 133 133 132 132 131 131 130 129 127 125 123 121 118 116 113 112 112 112 112 110
Wind_Direction
161 164 167 169 171 174 179 183 188 192 196 200 203 205 208 210 210 210 207 206 205 205 205 207 210 213 215 217 220 224 227 231 233 235 238 241 245 250 254 258 261 265 268 271 275 277 279 281 283 285 287 288 290 292 294 296 298 300 302 304 306 308 310 312 314 316 317 318 320 320 321 322 324 324 326 327 329 330 332 334 335 336 335 336 338 337 336
161 165 168 171 174 178 184 191 196 201 205 209 211 212 215 215 213 210 207 205 205 207 209 211 214 216 218 220 223 227 231 234 237 238 240 244 248 253 257 260 264 267 271 274 276 278 280 283 285 287 289 290 291 293 294 296 298 300 302 304 306 308 309 311 312 314 314 315 317 318 319 321 322 324 325 326 328 330 332 333 335 336 335 334 336 338 337
163 168 171 174 179 186 194 200 205 210 213 216 218 219 218 216 213 210 207 207 207 209 213 216 218 220 222 224 227 231 235 237 239 241 244 248 252 256 259 263 267 270 274 277 279 281 283 285 287 289 291 292 293 294 296 297 299 301 303 305 307 308 309 310 312 313 314 315 317 318 320 322 323 324 325 326 328 329 331 333 334 335 335 334 335 337 337
168 172 176 181 188 196 203 209 214 218 220 222 222 221 218 214 211 208 208 209 211 214 217 220 223 224 226 229 232 235 239 241 243 245 248 252 256 259 262 265 270 273 277 280 281 283 285 287 289 291 292 293 294 296 297 299 300 302 303 305 307 308 310 311 312 314 316 317 318 320 321 322 323 325 326 327 328 329 331 333 333 334 335 335 334 335 336
173 179 185 192 200 206 213 218 222 224 226 225 224 221 216 213 210 209 210 213 215 219 222 225 227 229 231 234 237 240 243 245 247 250 253 256 259 262 265 268 272 276 279 281 283 285 287 289 291 292 293 294 295 296 297 299 300 302 304 305 306 308 309 311 312 314 316 317 318 319 321 322 323 325 326 327 327 328 330 332 332 333 334 335 334 334 335
182 189 197 204 211 217 222 226 228 230 228 226 222 219 215 213 212 212 214 216 219 223 227 229 231 233 236 239 242 245 248 250 252 254 257 260 262 265 268 271 275 278 280 283 285 287 288 290 291 293 294 295 296 296 297 298 300 302 303 304 306 307 308 310 312 313 315 316 318 319 320 321 323 324 325 326 327 328 329 330 331 332 333 334 334 334 334
194 203 210 217 222 225 229 231 232 232 229 225 222 218 215 214 215 216 218 220 223 227 230 233 235 237 240 243 246 249 252 254 255 258 260 263 266 269 271 274 277 280 282 284 286 287 289 290 292 293 294 295 296 297 298 299 300 301 302 303 305 306 308 310 311 313 314 316 317 319 320 321 322 323 324 325 326 327 327 329 330 331 332 333 333 333 333
209 217 223 228 231 233 234 235 234 233 229 226 222 219 217 217 218 219 221 224 227 230 234 237 239 241 244 247 250 252 255 257 259 261 264 267 270 272 275 277 279 282 284 285 287 288 290 291 292 293 294 295 296 297 298 299 300 301 302 303 305 306 307 309 311 312 314 316 317 318 319 320 321 322 323 325 326 325 326 328 330 331 332 332 332 332 332
224 230 234 237 237 237 238 237 235 234 230 227 225 222 221 221 222 224 226 228 231 235 237 240 243 246 248 251 253 256 258 260 263 265 267 270 273 275 277 280 281 283 285 287 288 289 291 292 293 294 295 295 296 296 298 299 300 301 302 303 305 306 308 309 311 312 313 315 316 317 318 319 320 321 323 324 324 325 325 327 329 330 331 331 331 331 331
234 238 240 241 240 239 239 238 236 234 232 229 228 227 225 225 226 228 230 233 236 238 241 244 247 250 253 255 258 260 262 264 266 268 270 273 275 278 280 282 283 285 286 288 289 290 292 293 293 294 294 295 296 297 298 299 300 301 302 304 305 307 308 309 311 312 313 314 316 316 317 318 319 320 321 322 324 325 326 327 329 330 330 330 330 330 331
240 242 242 241 241 240 239 238 237 235 233 231 231 230 230 230 231 233 235 237 240 242 244 248 250 253 256 259 261 264 265 267 269 271 273 275 277 280 282 283 285 286 288 289 291 292 292 293 293 293 294 295 296 297 298 299 301 302 303 304 305 307 308 309 311 312 313 314 315 316 316 317 318 318 320 321 324 326 327 326 328 329 329 329 330 330 332
242 243 243 242 241 240 240 239 238 237 235 235 234 234 234 235 236 237 239 241 243 245 247 250 253 256 259 261 264 266 268 270 271 273 275 277 279 281 283 284 286 288 289 291 292 293 294 294 294 294 295 295 296 297 299 300 301 303 304 305 306 307 308 309 310 312 313 313 315 315 315 316 317 318 320 322 324 326 327 326 327 328 329 329 330 331 332
243 244 244 242 241 241 242 241 240 239 239 238 237 238 239 239 241 242 244 246 248 249 251 253 255 258 260 263 265 268 269 271 273 274 276 278 280 282 284 286 287 288 290 291 293 294 295 295 296 296 296 296 297 298 300 301 302 303 304 305 306 307 308 309 310 311 312 313 313 314 315 315 316 318 319 321 323 324 326 326 326 327 328 328 330 332 333
245 246 245 244 243 243 243 243 244 243 243 242 241 242 243 244 245 246 248 250 252 253 255 256 258 260 262 264 267 268 270 272 274 276 278 279 281 283 284 286 287 288 290 291 293 295 296 297 297 297 297 298 298 299 300 301 302 303 304 305 306 307 308 309 309 310 311 312 312 313 314 314 315 316 318 320 321 323 325 326 325 326 327 328 330 332 332
245 247 247 246 245 245 245 245 246 246 246 246 246 247 248 249 249 251 252 254 256 258 259 261 262 263 265 266 268 270 272 274 276 277 279 280 281 283 284 285 287 288 290 292 294 295 296 297 297 298 298 298 299 300 301 302 302 303 304 305 306 306 307 308 308 309 310 311 311 312 312 312 313 315 317 320 322 323 325 326 325 325 327 329 330 331 331
244 247 248 249 248 248 248 248 249 249 249 250 250 251 252 253 254 255 257 258 260 261 263 264 265 267 268 269 270 271 273 274 276 277 279 280 281 283 284 286 287 289 291 292 294 295 296 297 297 298 298 298 299 300 300 301 301 302 303 304 305 306 307 308 308 309 310 311 311 312 312 312 314 317 318 320 322 323 323 325 325 326 328 329 330 330 331
244 248 250 253 253 254 253 253 253 253 253 252 253 254 255 256 257 258 259 261 262 263 265 266 268 269 270 271 272 273 274 275 276 278 279 280 282 283 284 286 287 289 290 291 292 294 294 295 296 297 297 297 298 299 300 300 300 301 302 303 305 305 307 308 308 309 310 310 311 313 313 314 316 318 319 320 321 322 322 324 326 328 329 329 330 331 332
248 252 255 257 259 259 260 260 260 259 258 257 257 257 258 259 259 260 262 263 263 264 266 267 268 269 271 272 273 274 275 276 277 278 279 281 282 283 284 285 287 288 289 290 291 292 293 294 294 295 296 296 298 299 299 300 301 301 302 304 305 306 307 309 309 309 310 310 311 312 314 314 316 317 318 319 321 322 323 325 328 330 331 331 331 332 333
254 256 257 259 261 262 263 264 264 264 264 264 264 264 264 265 265 266 267 267 268 269 270 271 272 273 274 275 276 277 278 279 280 281 282 283 284 285 286 287 287 288 289 290 291 292 293 293 294 295 296 297 298 299 300 301 302 302 303 304 305 306 307 309 309 309 310 310 310 312 314 314 315 317 318 320 321 323 325 328 330 332 332 332 332 332 333
261 263 263 264 265 266 267 267 268 268 268 269 269 270 271 272 273 273 274 275 276 277 277 278 279 280 280 281 282 283 284 284 285 285 286 286 286 287 288 288 289 289 290 291 292 292 293 294 295 296 297 298 299 300 301 302 303 303 304 305 305 306 308 309 309 309 311 311 311 313 315 315 316 318 320 321 323 326 329 331 331 332 332 332 332 332 333
267 268 270 270 271 272 272 272 273 273 274 275 276 277 277 279 279 280 281 282 283 284 284 285 286 285 285 286 286 286 286 286 286 287 287 287 287 288 289 289 290 291 292 292 293 294 295 295 296 297 298 299 300 301 301 302 302 303 304 305 307 308 310 310 310 312 313 313 314 316 317 317 319 322 323 324 327 330 331 332 331 331 331 331 331 332 332
271 273 274 274 275 276 276 277 278 278 280 281 282 282 283 283 285 286 286 286 286 286 286 286 285 285 285 284 285 285 285 286 286 287 287 288 288 289 289 290 291 292 292 294 294 295 296 297 298 299 299 300 301 302 302 303 303 304 305 307 309 312 312 312 314 316 316 315 316 319 319 319 322 325 326 327 330 332 332 331 330 330 330 330 331 331 331
276 276 277 278 278 279 280 280 281 283 284 284 285 285 285 285 285 285 284 284 284 284 284 284 284 284 284 285 285 286 287 287 288 289 289 289 290 290 290 291 291 292 292 293 294 295 296 298 299 300 301 303 304 304 305 306 306 307 308 309 313 315 314 314 316 317 316 316 317 320 320 320 323 328 329 330 332 332 331 330 330 330 330 330 330 331 331
279 279 280 280 281 282 282 283 283 284 284 284 283 283 283 283 283 283 284 285 285 286 286 287 287 288 288 289 289 290 290 291 291 291 292 292 292 292 292 292 292 292 293 293 294 294 295 296 298 300 302 303 305 306 307 307 308 309 309 311 314 315 314 314 316 316 316 316 318 320 320 320 324 330 331 331 332 331 330 329 329 329 330 330 330 330 331
281 281 282 282 283 283 283 283 284 284 283 283 283 284 284 285 286 288 289 289 289 290 290 290 291 291 291 292 293 293 294 294 294 294 295 294 295 295 295 295 295 295 295 295 295 295 295 296 297 299 301 303 305 306 306 307 308 308 308 311 313 313 312 314 316 316 316 317 320 323 323 322 326 332 332 331 331 330 329 328 329 329 329 329 329 330 330
282 282 283 283 284 284 285 285 285 285 286 286 287 288 290 291 291 292 291 291 292 292 292 292 292 293 293 293 293 294 294 294 294 295 295 295 296 296 297 297 298 298 298 298 298 297 297 297 298 299 300 302 304 305 306 307 307 307 309 311 313 313 314 316 318 317 317 320 324 328 328 326 328 331 330 329 329 329 328 328 328 328 328 328 329 329 330
285 286 287 288 288 289 289 289 289 290 291 292 293 294 295 295 295 295 295 295 295 295 294 294 294 294 294 294 294 294 294 294 294 295 295 295 295 296 297 298 299 300 300 301 301 300 300 300 300 301 301 302 304 304 305 306 306 308 311 314 316 317 317 319 322 323 323 325 328 330 329 328 327 327 327 326 327 328 328 327 327 327 327 328 329 329 330
291 292 293 293 293 293 293 294 294 295 296 297 297 297 297 297 298 297 297 297 296 296 295 295 294 294 295 294 295 295 295 295 295 296 296 296 296 297 297 298 299 300 301 302 302 302 302 302 302 302 303 304 305 305 305 307 308 312 317 319 320 320 321 323 327 330 329 329 330 329 328 328 328 327 326 326 328 329 328 327 327 327 327 328 329 329 330
294 296 296 296 297 297 298 299 300 300 300 299 299 299 299 298 298 297 297 297 297 297 297 298 298 298 298 298 299 300 300 300 300 300 300 300 299 299 299 299 300 300 301 302 303 303 304 304 304 305 306 308 309 308 309 312 315 318 323 325 324 325 326 327 330 332 330 329 329 328 328 328 329 329 328 327 328 328 328 327 327 327 328 329 329 329 329
296 297 297 298 299 300 301 301 301 301 301 300 300 300 299 299 299 300 300 301 302 303 304 305 305 306 306 306 307 308 308 308 307 306 305 304 303 302 302 302 302 303 304 305 306 307 308 309 310 312 315 316 315 315 318 322 324 325 328 330 329 328 328 328 329 330 329 329 329 329 329 329 329 329 328 327 327 328 328 328 327 327 328 328 328 328 328
297 298 299 300 301 302 302 302 302 302 301 301 301 302 302 303 305 307 309 311 312 312 313 314 314 316 317 318 319 318 318 317 316 314 313 312 311 311 310 310 311 311 312 314 314 315 317 319 320 323 326 326 325 325 329 333 332 329 329 331 330 329 328 327 328 328 328 329 330 330 330 329 328 328 327 326 326 327 328 327 326 326 327 327 327 326 326
298 299 301 301 302 303 303 303 303 303 303 304 305 307 310 312 315 318 321 323 325 327 329 332 334 336 338 339 339 339 338 337 335 333 332 332 331 330 329 328 329 329 330 330 330 330 332 334 334 335 337 335 333 333 334 334 332 329 329 329 329 328 328 327 327 328 328 327 327 328 327 327 327 326 326 326 326 326 326 326 325 325 326 326 325 325 325
301 302 303 304 304 305 304 305 306 307 309 313 315 319 323 328 333 338 342 346 349 352 355 358 359 0 1 2 2 2 2 1 0 359 358 357 357 357 355 353 353 352 350 348 346 345 344 344 342 341 340 337 334 332 331 330 330 329 328 327 327 327 327 327 327 327 327 326 325 325 325 326 326 325 325 325 325 325 325 325 324 324 325 324 323 323 323
305 305 306 306 307 307 308 311 314 317 321 327 333 340 349 357 3 8 11 13 15 16 18 19 19 19 19 18 18 18 17 16 15 14 12 11 9 8 6 4 1 359 356 352 349 347 344 341 340 339 337 334 332 331 329 330 330 329 327 326 325 325 325 325 325 325 325 325 325 325 325 325 325 324 324 324 324 324 324 323 323 323 323 322 321 321 321
307 307 307 308 311 313 317 322 328 334 345 356 7 17 23 27 28 29 29 29 29 28 27 26 25 25 24 22 21 20 18 16 15 13 11 9 7 4 2 359 356 354 351 347 344 341 339 337 336 336 335 332 330 330 330 330 329 326 324 323 323 322 322 322 323 323 323 323 323 323 323 323 323 323 323 323 323 323 322 322 321 321 321 320 319 318 318
308 307 310 314 319 326 333 345 2 20 34 41 42 42 40 39 37 35 33 32 30 28 26 24 22 20 19 17 15 14 12 9 8 6 3 1 360 357 355 352 349 347 345 342 339 337 335 334 333 333 333 330 328 328 328 328 326 325 324 323 322 322 321 320 320 320 320 320 320 321 321 322 322 322 322 322 322 321 320 319 318 318 318 317 316 316 316
309 312 315 322 335 359 30 52 64 68 65 57 50 45 42 39 37 34 31 28 25 23 20 17 15 12 10 8 6 5 3 1 360 358 356 355 353 352 350 347 345 343 341 338 336 334 333 331 330 331 330 328 326 326 326 326 325 324 324 323 321 320 319 318 318 318 319 319 320 320 321 321 321 320 320 320 319 318 317 316 315 315 315 315 314 314 314
312 314 317 344 69 92 98 98 93 79 63 51 44 41 37 34 30 27 24 21 18 15 11 9 6 4 2 0 358 357 356 354 353 352 351 349 347 346 345 344 341 339 337 335 333 332 330 329 328 329 328 326 326 326 326 325 325 324 324 322 321 320 319 318 318 319 319 319 318 318 317 317 316 315 315 315 314 314 313 313 313 313 313 313 313 313 313
303 296 150 116 116 119 119 112 90 63 49 41 37 32 28 24 21 18 15 12 9 6 4 1 359 357 355 353 352 351 349 348 347 345 345 344 343 342 341 340 338 336 334 332 330 329 329 327 327 327 327 325 325 325 325 324 324 324 323 322 321 320 319 319 319 318 318 317 316 316 315 314 313 313 312 312 312 312 312 311 311 311 311 311 311 311 311
237 172 143 136 134 132 124 97 57 39 31 26 22 18 15 13 11 9 6 3 0 358 356 354 352 351 349 348 347 345 344 343 342 341 340 340 340 339 338 337 335 333 331 330 329 328 328 326 325 325 325 324 323 324 323 323 322 322 321 320 319 318 318 317 317 316 315 315 314 314 313 313 313 312 312 311 311 311 310 310 310 310 310 310 310 310 310
173 154 146 142 137 126 96 45 23 16 9 5 4 3 2 1 360 358 355 353 351 349 347 346 345 344 343 342 341 340 340 339 338 337 337 336 336 335 334 333 333 331 330 328 327 326 325 324 322 322 321 321 320 320 320 320 319 319 318 317 316 315 315 314 314 313 313 312 312 312 311 311 311 311 310 310 310 310 310 309 309 309 309 309 310 310 310
161 153 147 145 139 111 16 359 352 347 345 346 347 349 349 349 349 348 346 344 342 341 340 339 339 338 337 337 336 336 335 334 334 334 333 333 332 332 330 329 329 328 327 326 325 323 322 321 319 318 317 317 317 317 317 317 316 316 315 314 313 313 313 312 312 312 311 311 311 310 310 310 309 309 309 309 309 309 309 308 308 308 309 309 309 309 309
165 162 161 164 198 311 324 328 331 332 334 336 337 338 339 339 339 339 338 337 336 335 335 334 334 333 333 332 332 332 331 330 330 330 331 330 329 328 327 326 325 325 325 324 322 321 319 318 316 315 315 315 315 315 315 315 314 314 313 313 312 312 312 311 311 310 310 310 310 309 309 309 308 308 308 307 307 307 307 307 307 308 308 308 309 309 309
180 183 200 240 286 306 315 320 324 326 328 330 331 331 332 333 333 333 332 331 331 331 331 330 330 330 329 329 329 329 329 328 328 328 328 328 326 325 324 323 323 323 322 321 320 319 317 315 314 314 314 314 314 313 313 312 312 312 312 311 311 310 310 310 310 309 309 308 308 308 307 307 306 306 306 306 306 306 306 307 307 307 307 308 308 308 308
209 225 253 280 298 308 313 318 321 322 323 325 326 326 327 327 327 327 327 327 327 328 327 327 327 326 326 326 326 326 327 326 326 326 326 326 325 324 323 322 322 321 321 320 319 317 316 314 313 313 312 312 312 312 311 311 311 310 310 310 309 308 308 308 308 307 307 307 306 306 306 305 305 305 305 305 306 306 306 307 307 307 307 307 307 307 307
243 261 279 293 303 307 311 314 316 316 317 319 320 320 321 321 321 322 322 323 323 324 324 324 323 323 323 324 324 324 325 325 324 324 324 324 323 322 321 321 320 319 319 319 318 317 315 314 313 312 312 312 312 311 311 310 310 309 309 308 308 307 307 307 306 306 306 306 305 305 305 305 305 305 306 306 306 306 306 306 306 306 306 306 306 305 305
267 278 289 297 302 305 308 310 311 311 312 313 315 315 316 316 317 318 319 320 320 320 320 320 321 321 322 322 323 323 323 323 322 322 321 321 321 320 320 319 319 319 319 318 317 316 314 313 313 312 312 312 311 311 310 309 309 308 308 308 308 308 307 307 306 306 306 305 305 306 306 306 306 306 306 306 306 306 305 305 305 305 305 305 305 305 305
277 284 291 296 300 303 305 306 307 308 308 309 310 311 311 313 314 315 316 316 317 317 317 318 319 320 320 321 321 321 321 320 320 320 319 320 320 320 320 319 319 318 318 317 316 315 314 313 312 312 312 311 310 310 309 309 309 309 309 309 308 308 307 306 306 306 306 306 307 307 307 307 307 306 306 306 306 306 306 306 305 305 305 305 305 305 305
282 287 291 295 298 301 302 304 305 305 306 306 307 308 309 310 311 312 313 313 314 315 316 316 317 318 319 319 319 319 319 319 319 319 319 319 319 319 319 319 318 316 316 315 314 314 313 312 312 312 311 311 311 310 310 310 310 309 309 308 308 307 307 307 307 307 308 308 308 308 308 307 307 307 307 307 307 307 307 307 306 306 306 306 306 305 305
285 289 293 296 299 301 301 302 303 304 304 305 305 306 307 308 309 310 311 312 313 314 315 316 316 317 318 318 318 318 318 318 318 318 319 319 318 318 317 317 315 314 314 314 313 313 313 313 312 312 312 311 311 311 311 310 310 309 308 308 308 308 308 309 309 309 309 309 309 308 308 308 308 307 307 307 308 308 308 307 307 307 307 307 307 306 306
288 292 295 297 298 299 300 301 302 302 303 303 304 305 306 307 308 309 310 312 313 314 315 315 315 316 316 316 316 316 317 317 317 318 318 317 316 316 315 315 314 313 313 314 314 314 313 313 313 312 312 312 311 310 310 309 309 309 309 309 309 310 310 310 310 310 309 309 309 308 308 308 308 308 308 308 308 308 308 308 308 308 308 308 308 308 308
289 292 294 295 296 297 298 299 300 300 301 302 303 304 305 306 307 309 310 312 313 313 313 314 314 314 314 314 315 316 316 316 316 316 316 315 315 314 314 314 314 314 314 314 314 314 314 314 313 313 312 311 311 310 310 310 310 310 310 310 311 310 310 310 309 309 309 309 309 309 309 309 309 309 309 309 309 309 309 310 310 310 310 310 310 309 310